When you browse on this site, cookies collect data to enhance your experience and personalize the content and advertising you see.
Visit our Privacy Policy to learn more. By continuing to use the site, you agree to this use of cookies and data.
  • In Österreich
  • Länderverzeichnis
  • Für 7 Tage
  • Wassertemperatur
  • Satellitenkarten
  • Wetterkarte
  • News
  • Widgets
  • user-avatar
    Anmelden

    Stündliche Wetter Diapaga

    Heute, 12 Dezember, Mittwoch

    Zeit Temperatur Niederschläge Wind Luftdruck Luftfeuchtigkeit
    00:00 +25°C° 0 mm 2 m/S 737 mmHg 18%
    01:00 +24°C° 0 mm 2 m/S 737 mmHg 19%
    02:00 +24°C° 0 mm 2 m/S 737 mmHg 20%
    03:00 +23°C° 0 mm 2 m/S 737 mmHg 20%
    04:00 +22°C° 0 mm 3 m/S 737 mmHg 21%
    05:00 +22°C° 0 mm 3 m/S 737 mmHg 22%
    06:00 +21°C° 0 mm 3 m/S 737 mmHg 23%
    07:00 +24°C° 0 mm 3 m/S 738 mmHg 20%
    08:00 +27°C° 0 mm 4 m/S 738 mmHg 17%
    09:00 +29°C° 0 mm 4 m/S 739 mmHg 14%
    10:00 +32°C° 0 mm 4 m/S 738 mmHg 13%
    11:00 +34°C° 0 mm 4 m/S 738 mmHg 11%
    12:00 +36°C° 0 mm 4 m/S 738 mmHg 10%
    13:00 +37°C° 0 mm 3 m/S 737 mmHg 10%
    14:00 +37°C° 0 mm 3 m/S 736 mmHg 10%
    15:00 +37°C° 0 mm 3 m/S 736 mmHg 9%
    16:00 +36°C° 0 mm 3 m/S 736 mmHg 11%
    17:00 +34°C° 0 mm 3 m/S 736 mmHg 12%
    18:00 +31°C° 0 mm 2 m/S 736 mmHg 13%
    19:00 +30°C° 0 mm 3 m/S 737 mmHg 13%
    20:00 +29°C° 0 mm 3 m/S 737 mmHg 14%
    21:00 +28°C° 0 mm 3 m/S 738 mmHg 14%
    22:00 +28°C° 0 mm 3 m/S 738 mmHg 14%
    23:00 +27°C° 0 mm 3 m/S 738 mmHg 14%

    Morgen, 13 Dezember, Donnerstag

    Zeit Temperatur Niederschläge Wind Luftdruck Luftfeuchtigkeit
    00:00 +26°C° 0 mm 3 m/S 738 mmHg 14%
    01:00 +26°C° 0 mm 3 m/S 738 mmHg 14%
    02:00 +26°C° 0 mm 3 m/S 737 mmHg 14%
    03:00 +25°C° 0 mm 3 m/S 737 mmHg 14%
    04:00 +25°C° 0 mm 3 m/S 737 mmHg 14%
    05:00 +24°C° 0 mm 3 m/S 737 mmHg 15%
    06:00 +24°C° 0 mm 3 m/S 738 mmHg 15%
    07:00 +26°C° 0 mm 3 m/S 738 mmHg 14%
    08:00 +28°C° 0 mm 4 m/S 739 mmHg 12%
    09:00 +30°C° 0 mm 4 m/S 740 mmHg 11%
    10:00 +33°C° 0 mm 4 m/S 739 mmHg 10%
    11:00 +36°C° 0 mm 4 m/S 738 mmHg 9%
    12:00 +38°C° 0 mm 4 m/S 738 mmHg 8%
    13:00 +38°C° 0 mm 4 m/S 737 mmHg 9%
    14:00 +38°C° 0 mm 4 m/S 736 mmHg 9%
    15:00 +39°C° 0 mm 3 m/S 736 mmHg 9%
    16:00 +37°C° 0 mm 3 m/S 736 mmHg 10%
    17:00 +35°C° 0 mm 3 m/S 736 mmHg 11%
    18:00 +33°C° 0 mm 3 m/S 736 mmHg 12%
    19:00 +31°C° 0 mm 3 m/S 737 mmHg 12%
    20:00 +30°C° 0 mm 3 m/S 738 mmHg 12%
    21:00 +29°C° 0 mm 3 m/S 738 mmHg 13%
    22:00 +29°C° 0 mm 3 m/S 738 mmHg 13%
    23:00 +28°C° 0 mm 3 m/S 738 mmHg 13%

    übermorgen, 14 Dezember, Freitag

    Zeit Temperatur Niederschläge Wind Luftdruck Luftfeuchtigkeit
    00:00 +27°C° 0 mm 3 m/S 738 mmHg 13%
    01:00 +27°C° 0 mm 3 m/S 737 mmHg 13%
    02:00 +26°C° 0 mm 3 m/S 737 mmHg 14%
    03:00 +26°C° 0 mm 3 m/S 737 mmHg 14%
    04:00 +25°C° 0 mm 3 m/S 737 mmHg 14%
    05:00 +25°C° 0 mm 3 m/S 737 mmHg 15%
    06:00 +24°C° 0 mm 3 m/S 737 mmHg 15%
    07:00 +26°C° 0 mm 3 m/S 738 mmHg 13%
    08:00 +29°C° 0 mm 4 m/S 739 mmHg 12%
    09:00 +32°C° 0 mm 4 m/S 739 mmHg 10%
    10:00 +34°C° 0 mm 4 m/S 739 mmHg 9%
    11:00 +36°C° 0 mm 4 m/S 738 mmHg 9%
    12:00 +38°C° 0 mm 4 m/S 738 mmHg 8%
    13:00 +38°C° 0 mm 4 m/S 737 mmHg 8%
    14:00 +40°C° 0 mm 4 m/S 736 mmHg 8%
    15:00 +39°C° 0 mm 3 m/S 735 mmHg 8%
    16:00 +37°C° 0 mm 3 m/S 736 mmHg 9%
    17:00 +35°C° 0 mm 3 m/S 736 mmHg 10%
    18:00 +32°C° 0 mm 2 m/S 736 mmHg 11%
    19:00 +31°C° 0 mm 3 m/S 737 mmHg 12%
    20:00 +30°C° 0 mm 3 m/S 737 mmHg 12%
    21:00 +29°C° 0 mm 3 m/S 738 mmHg 12%
    22:00 +29°C° 0 mm 3 m/S 738 mmHg 12%
    23:00 +28°C° 0 mm 3 m/S 737 mmHg 12%

    15 Dezember, Samstag

    Zeit Temperatur Niederschläge Wind Luftdruck Luftfeuchtigkeit
    00:00 +27°C° 0 mm 3 m/S 737 mmHg 12%
    01:00 +27°C° 0 mm 3 m/S 737 mmHg 13%
    02:00 +26°C° 0 mm 3 m/S 737 mmHg 13%
    03:00 +26°C° 0 mm 3 m/S 736 mmHg 13%
    04:00 +25°C° 0 mm 3 m/S 737 mmHg 13%
    05:00 +25°C° 0 mm 3 m/S 737 mmHg 14%
    06:00 +24°C° 0 mm 3 m/S 737 mmHg 14%
    07:00 +26°C° 0 mm 4 m/S 738 mmHg 12%
    08:00 +28°C° 0 mm 5 m/S 738 mmHg 11%
    09:00 +30°C° 0 mm 5 m/S 739 mmHg 9%
    10:00 +33°C° 0 mm 5 m/S 739 mmHg 8%
    11:00 +35°C° 0 mm 5 m/S 738 mmHg 8%
    12:00 +37°C° 0 mm 4 m/S 738 mmHg 7%
    13:00 +38°C° 0 mm 4 m/S 737 mmHg 7%
    14:00 +38°C° 0 mm 4 m/S 736 mmHg 7%
    15:00 +39°C° 0 mm 3 m/S 735 mmHg 7%
    16:00 +37°C° 0 mm 3 m/S 735 mmHg 8%
    17:00 +35°C° 0 mm 3 m/S 736 mmHg 9%
    18:00 +33°C° 0 mm 3 m/S 736 mmHg 9%
    19:00 +31°C° 0 mm 3 m/S 737 mmHg 10%
    20:00 +30°C° 0 mm 3 m/S 737 mmHg 10%
    21:00 +29°C° 0 mm 3 m/S 738 mmHg 10%
    22:00 +28°C° 0 mm 3 m/S 737 mmHg 10%
    23:00 +27°C° 0 mm 3 m/S 737 mmHg 11%

    16 Dezember, Sonntag

    Zeit Temperatur Niederschläge Wind Luftdruck Luftfeuchtigkeit
    00:00 +27°C° 0 mm 3 m/S 737 mmHg 11%
    01:00 +26°C° 0 mm 3 m/S 736 mmHg 11%
    02:00 +25°C° 0 mm 3 m/S 736 mmHg 11%
    03:00 +25°C° 0 mm 3 m/S 736 mmHg 10%
    04:00 +24°C° 0 mm 3 m/S 736 mmHg 10%
    05:00 +24°C° 0 mm 3 m/S 736 mmHg 10%
    06:00 +22°C° 0 mm 3 m/S 737 mmHg 10%
    07:00 +25°C° 0 mm 4 m/S 737 mmHg 9%
    08:00 +27°C° 0 mm 4 m/S 738 mmHg 8%
    09:00 +30°C° 0 mm 5 m/S 738 mmHg 7%
    10:00 +33°C° 0 mm 4 m/S 738 mmHg 7%
    11:00 +35°C° 0 mm 4 m/S 737 mmHg 6%
    12:00 +37°C° 0 mm 4 m/S 737 mmHg 6%
    13:00 +37°C° 0 mm 4 m/S 736 mmHg 6%
    14:00 +38°C° 0 mm 3 m/S 736 mmHg 7%
    15:00 +38°C° 0 mm 3 m/S 735 mmHg 7%
    16:00 +36°C° 0 mm 2 m/S 735 mmHg 8%
    17:00 +35°C° 0 mm 2 m/S 736 mmHg 9%
    18:00 +32°C° 0 mm 2 m/S 736 mmHg 10%
    19:00 +31°C° 0 mm 2 m/S 736 mmHg 11%
    20:00 +30°C° 0 mm 2 m/S 737 mmHg 12%
    21:00 +28°C° 0 mm 2 m/S 737 mmHg 12%
    22:00 +28°C° 0 mm 3 m/S 737 mmHg 13%
    23:00 +27°C° 0 mm 3 m/S 737 mmHg 13%

    17 Dezember, Montag

    Zeit Temperatur Niederschläge Wind Luftdruck Luftfeuchtigkeit
    00:00 +27°C° 0 mm 3 m/S 737 mmHg 13%
    01:00 +26°C° 0 mm 4 m/S 737 mmHg 14%
    02:00 +25°C° 0 mm 4 m/S 737 mmHg 14%
    03:00 +25°C° 0 mm 4 m/S 736 mmHg 14%
    04:00 +23°C° 0 mm 4 m/S 737 mmHg 15%
    05:00 +22°C° 0 mm 4 m/S 737 mmHg 15%
    06:00 +22°C° 0 mm 4 m/S 737 mmHg 15%
    07:00 +23°C° 0 mm 5 m/S 738 mmHg 14%
    08:00 +26°C° 0 mm 5 m/S 738 mmHg 13%
    09:00 +27°C° 0 mm 6 m/S 739 mmHg 12%
    10:00 +30°C° 0 mm 5 m/S 738 mmHg 11%
    11:00 +33°C° 0 mm 5 m/S 738 mmHg 10%
    12:00 +35°C° 0 mm 5 m/S 737 mmHg 9%
    13:00 +35°C° 0 mm 5 m/S 737 mmHg 8%
    14:00 +36°C° 0 mm 4 m/S 736 mmHg 8%
    15:00 +37°C° 0 mm 4 m/S 736 mmHg 8%
    16:00 +35°C° 0 mm 4 m/S 736 mmHg 10%
    17:00 +33°C° 0 mm 3 m/S 736 mmHg 11%
    18:00 +30°C° 0 mm 3 m/S 736 mmHg 12%
    19:00 +29°C° 0 mm 3 m/S 737 mmHg 13%
    20:00 +28°C° 0 mm 3 m/S 737 mmHg 14%
    21:00 +27°C° 0 mm 3 m/S 738 mmHg 15%
    22:00 +27°C° 0 mm 3 m/S 738 mmHg 16%
    23:00 +26°C° 0 mm 4 m/S 738 mmHg 17%
    Mehr zeigen